Location: ??????
(42.0089°N, 44.3281°E)
Time: 19:01:32
(UTC+00:00)

ARGOS - Pass Details

Date: 24 October 2021
Orbit: 820 x 835 km, 98.4° (Epoch: 02 December)

Event Time Altitude Azimuth Distance (km) Brightness Sun altitude
Rises 14:56:21 0° 149° (SSE) 3,356 6.1 -9.7°
Reaches altitude 10° 14:58:45 10° 144° (SE) 2,429 5.3 -10.2°
Maximum altitude 15:03:55 49° 70° (ENE) 1,070 3.4 -11.1°
Drops below altitude 10° 15:09:07 10° 358° (N) 2,452 5.6 -12.1°
Sets 15:11:33 0° 353° (N) 3,392 6.4 -12.5°
